Regional Weather Roundup
Issued by NWS Huntsville, AL

Home | Current Version | Previous Version | Text Only | Print | Product List | Glossary On
Versions: 1 2 3 4 5 6 7 8 9 10 11 12 13 14 15 16 17 18 19 20 21 22 23 24 25 26 27 28 29 30 31 32 33 34 35 36 37 38 39 40 41 42 43 44 45 46 47 48 49 50
406
ASUS44 KHUN 271910
RWRHUN

WEATHER ROUNDUP FOR THE TENNESSEE VALLEY
NATIONAL WEATHER SERVICE HUNTSVILLE AL
200 PM CDT WED JUL 27 2016

ALZ001>004-272000-
NORTHWEST ALABAMA

CITY           SKY/WX    TMP DP  RH WIND       PRES   REMARKS
SHOALS AIRPORT MOSUNNY   90  73  57 S12       30.00F HX  98
SHOALS TVA RES   N/A     86 N/A N/A MISG        N/A
$$

ALZ005>007-016-272000-
NORTH CENTRAL ALABAMA

CITY           SKY/WX    TMP DP  RH WIND       PRES   REMARKS
DECATUR AP     MOSUNNY   86  71  60 S13       30.01F HX  91
HUNTSVILLE AP  PTSUNNY   89  68  49 S13       30.01F HX  93
HUN NWS/UAH      N/A     90  68  48 S9          N/A  HX  94
MERIDIANVILLE  PTSUNNY   88  63  42 S8        30.02F
REDSTONE ARSN  PTSUNNY   89  72  57 SW9       30.00F HX  96
VINEMONT AP    FAIR      85  71  64 S6        30.06F HX  90
$$

ALZ008>010-272000-
NORTHEAST ALABAMA

CITY           SKY/WX    TMP DP  RH WIND       PRES   REMARKS
ALBERTVILLE    CLOUDY    86  79  79 S9        30.04F HX  99
FORT PAYNE     PTSUNNY   86  68  54 S6        30.03F
SCOTTSBORO AP  PTSUNNY   90  72  55 SW8       30.02F HX  96
SCOTTSBORO HCN   N/A     90 N/A N/A MISG        N/A
VALLEY HEAD      N/A     86 N/A N/A MISG        N/A
$$

TNZ076-096-097-272000-
SOUTHEASTERN MIDDLE TENNESSEE

CITY           SKY/WX    TMP DP  RH WIND       PRES   REMARKS
TULLAHOMA      MOSUNNY   90  70  51 S8        30.03F HX  95
WINCHESTER     MOSUNNY   90  72  55 S9        30.02F HX  96
$$

...SURROUNDING SITES...

CITY           SKY/WX    TMP DP  RH WIND       PRES   REMARKS
ATLANTA        PTSUNNY   89  72  56 S9        30.06F HX  96
ANNISTON       PTSUNNY   86  70  58 SW8       30.05F HX  90
BIRMINGHAM     PTSUNNY   86  72  62 S7        30.05F HX  92
CHATTANOOGA    PTSUNNY   94  69  44 SE10G17   30.00F HX  99
DALTON         MOSUNNY   90  72  55 S6        30.02F HX  96
GADSDEN        PTSUNNY   87  74  64 S7          N/A  HX  95
GOLDEN TRNGL   PTSUNNY   90  72  55 S12       29.96F HX  96
HALEYVILLE     PTSUNNY   85  73  67 VRB5      30.03F HX  91
JACKSON TN     MOSUNNY   90  74  59 E7        29.94F HX  99
MEMPHIS        PTSUNNY   92  73  53 SE13G18   29.92F HX 100
NASHVILLE      CLOUDY    91  75  59 SW9       29.97F THUNDER HX 101
OXFORD MS      FAIR      84  73  70 S7        29.96F HX  91
ROME           PTSUNNY   89  70  53 S6        30.01F HX  94
SAVANNAH       PTSUNNY   90  73  58 S9        29.95F HX  98
TUPELO         CLOUDY    88  73  61 SE10      29.95F HX  95
TUSCALOOSA     PTSUNNY   88  76  67 S14       29.99F HX  99
$$

...GULF COAST WEATHER...

CITY           SKY/WX    TMP DP  RH WIND       PRES   REMARKS
GULFPORT       PTSUNNY   87  74  64 S12G17    30.04F HX  95
PASCAGOULA     MOSUNNY   89  79  72 SW7       30.06S HX 104
MOBILE         PTSUNNY   89  75  63 S12G21    30.06F HX  99
GULF SHORES    MOCLDY    89  79  72 SW15G21   30.07S HX 104
PENSACOLA      MOSUNNY   92  76  59 S14G22    30.06F HX 104
DESTIN         MOSUNNY   92  77  61 S9        30.07F HX 105
PANAMA CITY    MOSUNNY   89  78  68 S10       30.07F HX 103
APPALACHICOLA  SUNNY     90  78  68 S9        30.07F HX 104
$$





USA.gov is the U.S. government's official web portal to all federal, state and local government web resources and services.